Weather History for Allentown, PA

Change the Weather History Date:

Sunday, February 17, 2013

  Actual Average (KABE) Record (KABE)
Temperature  
Mean Temperature 24 °F 31 °F  
Max Temperature 30 °F 40 °F 63 °F (1976)
Min Temperature 19 °F 22 °F -3 °F (1979)
Degree Days  
Heating Degree Days 40 34  
Month to date heating degree days 602  
Since 1 July heating degree days 3952  
Cooling Degree Days 0 0  
Month to date cooling degree days 0  
Year to date cooling degree days 0  
Moisture  
Dew Point 4 °F    
Average Humidity 39    
Maximum Humidity 47    
Minimum Humidity 31    
Precipitation  
Precipitation 0.00 in 0.10 in 1.00 in (2003)
Month to date precipitation 1.64  
Year to date precipitation 4.67  
Snow  
Snow 0.00 in 0.40 in 18.00 in (2003)
Month to date snowfall 7.0  
Since 1 July snowfall 22.9  
Snow Depth -    
Sea Level Pressure  
Sea Level Pressure 29.87 in    
Wind  
Wind Speed 12 mph (NW)    
Max Wind Speed 21 mph    
Max Gust Speed 36 mph    
Visibility 10 miles    
Events      
T = Trace of Precipitation, MM = Missing Value Source: NWS Daily Summary

Daily Weather History Graph

Daily Weather History Graph

Search for Another Location

Airport:

Trip Planner

Search our weather history database for the weather conditions in past years. The results will help you decide how hot, cold, wet, or windy it might be!

Date:

Astronomy

Feb. 17, 2013 Rise Set
Actual Time 6:52 AM EST 5:39 PM EST
Civil Twilight 6:24 AM EST 6:07 PM EST
Nautical Twilight 5:52 AM EST 6:39 PM EST
Astronomical Twilight 5:21 AM EST 7:11 PM EST
Moon 10:42 AM EST (2/17) 12:35 AM EST (2/17)
Length of Visible Light 11h 42m
Length of Day
10h 47m
Waxing Crescent, 49% of the Moon is Illuminated
Feb 17
Waxing Crescent
Feb 17
First Quarter
Feb 25
Full
Mar 4
Last Quarter
Mar 11
New

Hourly Weather History & Observations

Time (EST) Temp. Windchill Dew Point Humidity Pressure Visibility Wind Dir Wind Speed Gust Speed Precip Events Conditions
12:15 AM 28.4 °F 18.5 °F 6.8 °F 40% 29.80 in 10.0 mi North 11.5 mph - N/A   Clear
12:35 AM 28.4 °F 19.1 °F 6.8 °F 40% 29.80 in 10.0 mi North 10.4 mph 18.4 mph N/A   Clear
12:55 AM 28.4 °F 17.0 °F 6.8 °F 40% 29.78 in 10.0 mi North 15.0 mph 23.0 mph N/A   Clear
1:15 AM 28.4 °F 19.1 °F 6.8 °F 40% 29.79 in 10.0 mi NNW 10.4 mph - N/A   Clear
1:35 AM 28.4 °F 18.5 °F 6.8 °F 40% 29.78 in 10.0 mi North 11.5 mph 20.7 mph N/A   Clear
1:55 AM 28.4 °F 19.7 °F 6.8 °F 40% 29.78 in 10.0 mi NNW 9.2 mph - N/A   Clear
2:15 AM 28.4 °F 19.1 °F 6.8 °F 40% 29.79 in 10.0 mi NNW 10.4 mph 16.1 mph N/A   Clear
2:35 AM 28.4 °F 17.5 °F 5.0 °F 37% 29.78 in 10.0 mi NNW 13.8 mph 20.7 mph N/A   Clear
2:55 AM 26.6 °F 16.2 °F 6.8 °F 43% 29.78 in 10.0 mi NNW 11.5 mph 18.4 mph N/A   Clear
3:15 AM 26.6 °F 16.2 °F 5.0 °F 40% 29.78 in 10.0 mi NNW 11.5 mph - N/A   Clear
3:35 AM 26.6 °F 15.7 °F 5.0 °F 40% 29.78 in 10.0 mi NW 12.7 mph - N/A   Clear
3:55 AM 26.6 °F 16.8 °F 5.0 °F 40% 29.78 in 10.0 mi NW 10.4 mph - N/A   Clear
4:15 AM 26.6 °F 17.5 °F 5.0 °F 40% 29.78 in 10.0 mi NNW 9.2 mph 16.1 mph N/A   Clear
4:35 AM 26.6 °F 18.2 °F 5.0 °F 40% 29.78 in 10.0 mi NW 8.1 mph 17.3 mph N/A   Clear
4:55 AM 24.8 °F 16.9 °F 5.0 °F 43% 29.78 in 10.0 mi NNW 6.9 mph - N/A   Clear
5:15 AM 24.8 °F 15.3 °F 5.0 °F 43% 29.78 in 10.0 mi NNW 9.2 mph - N/A   Clear
5:35 AM 24.8 °F 15.3 °F 5.0 °F 43% 29.78 in 10.0 mi NW 9.2 mph - N/A   Clear
5:55 AM 24.8 °F 16.9 °F 5.0 °F 43% 29.78 in 10.0 mi NW 6.9 mph 16.1 mph N/A   Clear
6:15 AM 23.0 °F 12.4 °F 5.0 °F 46% 29.79 in 10.0 mi NW 10.4 mph 16.1 mph N/A   Clear
6:55 AM 23.0 °F 13.1 °F 5.0 °F 46% 29.80 in 10.0 mi NW 9.2 mph - N/A   Clear
7:15 AM 23.0 °F 11.7 °F 5.0 °F 46% 29.80 in 10.0 mi NW 11.5 mph - N/A   Clear
7:55 AM 24.8 °F 13.4 °F 6.8 °F 46% 29.80 in 10.0 mi NW 12.7 mph - N/A   Clear
8:15 AM 24.8 °F 11.9 °F 6.8 °F 46% 29.81 in 10.0 mi NW 16.1 mph - N/A   Clear
8:35 AM 26.6 °F 16.2 °F 6.8 °F 43% 29.80 in 10.0 mi NW 11.5 mph 26.5 mph N/A   Clear
8:55 AM 26.6 °F 14.7 °F 6.8 °F 43% 29.81 in 10.0 mi NNW 15.0 mph 18.4 mph N/A   Clear
9:15 AM 26.6 °F 15.2 °F 5.0 °F 40% 29.81 in 10.0 mi NW 13.8 mph 27.6 mph N/A   Clear
9:35 AM 26.6 °F 15.2 °F 5.0 °F 40% 29.81 in 10.0 mi NNW 13.8 mph 23.0 mph N/A   Clear
9:55 AM 28.4 °F 18.0 °F 5.0 °F 37% 29.81 in 10.0 mi WNW 12.7 mph 17.3 mph N/A   Clear
10:15 AM 26.6 °F 15.2 °F 5.0 °F 40% 29.82 in 10.0 mi WNW 13.8 mph 20.7 mph N/A   Mostly Cloudy
10:35 AM 28.4 °F 18.5 °F 5.0 °F 37% 29.82 in 10.0 mi NW 11.5 mph 25.3 mph N/A   Scattered Clouds
10:55 AM 28.4 °F 17.5 °F 5.0 °F 37% 29.83 in 10.0 mi West 13.8 mph 23.0 mph N/A   Mostly Cloudy
11:15 AM 28.4 °F 18.0 °F 5.0 °F 37% 29.83 in 10.0 mi WNW 12.7 mph 20.7 mph N/A   Mostly Cloudy
11:35 AM 28.4 °F 17.0 °F 5.0 °F 37% 29.83 in 10.0 mi NW 15.0 mph 27.6 mph N/A   Mostly Cloudy
11:55 AM 28.4 °F 16.2 °F 5.0 °F 37% 29.83 in 10.0 mi NNW 17.3 mph 28.8 mph N/A   Scattered Clouds
12:15 PM 28.4 °F 18.5 °F 5.0 °F 37% 29.82 in 10.0 mi WNW 11.5 mph 28.8 mph N/A   Mostly Cloudy
12:35 PM 30.2 °F 18.5 °F 5.0 °F 34% 29.83 in 10.0 mi NW 17.3 mph 26.5 mph N/A   Overcast
12:55 PM 28.4 °F 16.6 °F 6.8 °F 40% 29.83 in 10.0 mi WNW 16.1 mph 26.5 mph N/A   Scattered Clouds
1:15 PM 28.4 °F 17.0 °F 6.8 °F 40% 29.83 in 10.0 mi NW 15.0 mph 23.0 mph N/A   Scattered Clouds
1:35 PM 28.4 °F 15.8 °F 5.0 °F 37% 29.83 in 10.0 mi NW 18.4 mph 26.5 mph N/A   Mostly Cloudy
1:55 PM 26.6 °F 14.7 °F 8.6 °F 47% 29.83 in 10.0 mi WNW 15.0 mph 29.9 mph N/A   Overcast
2:15 PM 28.4 °F 17.5 °F 8.6 °F 43% 29.83 in 10.0 mi WNW 13.8 mph 20.7 mph N/A   Scattered Clouds
2:35 PM 28.4 °F 18.5 °F 5.0 °F 37% 29.83 in 10.0 mi NW 11.5 mph 31.1 mph N/A   Clear
2:55 PM 28.4 °F 15.1 °F 3.2 °F 34% 29.83 in 10.0 mi NW 20.7 mph 28.8 mph N/A   Mostly Cloudy
3:15 PM 28.4 °F 15.1 °F 3.2 °F 34% 29.84 in 10.0 mi NW 20.7 mph 35.7 mph N/A   Mostly Cloudy
3:35 PM 28.4 °F 20.4 °F 8.6 °F 43% 29.84 in 10.0 mi WNW 8.1 mph 21.9 mph N/A   Mostly Cloudy
3:55 PM 28.4 °F 18.5 °F 5.0 °F 37% 29.85 in 10.0 mi West 11.5 mph 23.0 mph N/A   Scattered Clouds
4:15 PM 28.4 °F 16.6 °F 3.2 °F 34% 29.86 in 10.0 mi West 16.1 mph 21.9 mph N/A   Mostly Cloudy
4:35 PM 28.4 °F 18.0 °F 1.4 °F 31% 29.87 in 10.0 mi WNW 12.7 mph 25.3 mph N/A   Overcast
4:55 PM 26.6 °F 16.2 °F 3.2 °F 37% 29.87 in 10.0 mi WNW 11.5 mph 18.4 mph N/A   Mostly Cloudy
5:15 PM 26.6 °F 14.7 °F -0.4 °F 31% 29.89 in 10.0 mi WNW 15.0 mph 25.3 mph N/A   Scattered Clouds
5:35 PM 26.6 °F 12.7 °F -0.4 °F 31% 29.91 in 10.0 mi WNW 20.7 mph 27.6 mph N/A   Mostly Cloudy
5:55 PM 26.6 °F 13.8 °F -0.4 °F 31% 29.92 in 10.0 mi WNW 17.3 mph 23.0 mph N/A   Mostly Cloudy
6:15 PM 26.6 °F 14.3 °F -0.4 °F 31% 29.94 in 10.0 mi WNW 16.1 mph 29.9 mph N/A   Mostly Cloudy
6:35 PM 24.8 °F 11.1 °F -0.4 °F 34% 29.95 in 10.0 mi WNW 18.4 mph 26.5 mph N/A   Mostly Cloudy
6:55 PM 24.8 °F 13.4 °F -0.4 °F 34% 29.95 in 10.0 mi WNW 12.7 mph 28.8 mph N/A   Mostly Cloudy
7:15 PM 23.0 °F 10.6 °F -0.4 °F 36% 29.97 in 10.0 mi NW 13.8 mph 27.6 mph N/A   Mostly Cloudy
7:35 PM 23.0 °F 13.9 °F 1.4 °F 39% 29.98 in 10.0 mi WNW 8.1 mph 23.0 mph N/A   Scattered Clouds
7:55 PM 23.0 °F 12.4 °F -0.4 °F 36% 29.99 in 10.0 mi WNW 10.4 mph 20.7 mph N/A   Mostly Cloudy
8:15 PM 23.0 °F 11.1 °F -0.4 °F 36% 30.00 in 10.0 mi NW 12.7 mph 23.0 mph N/A   Mostly Cloudy
8:35 PM 21.2 °F 7.3 °F -2.2 °F 36% 30.02 in 10.0 mi NW 16.1 mph 26.5 mph N/A   Scattered Clouds
8:55 PM 21.2 °F 8.3 °F -2.2 °F 36% 30.03 in 10.0 mi NW 13.8 mph 28.8 mph N/A   Clear
9:15 PM 21.2 °F 6.0 °F -0.4 °F 39% 30.04 in 10.0 mi NW 19.6 mph 32.2 mph N/A   Clear
9:35 PM 19.4 °F 5.5 °F -0.4 °F 42% 30.05 in 10.0 mi WNW 15.0 mph 23.0 mph N/A   Clear
9:55 PM 19.4 °F 5.5 °F -0.4 °F 42% 30.06 in 10.0 mi WNW 15.0 mph 24.2 mph N/A   Clear
10:15 PM 19.4 °F 7.9 °F -0.4 °F 42% 30.06 in 10.0 mi WNW 10.4 mph 18.4 mph N/A   Scattered Clouds
10:35 PM 19.4 °F 4.5 °F 1.4 °F 46% 30.07 in 10.0 mi WNW 17.3 mph 26.5 mph N/A   Scattered Clouds
10:55 PM 19.4 °F 5.5 °F -0.4 °F 42% 30.08 in 10.0 mi WNW 15.0 mph 27.6 mph N/A   Scattered Clouds
11:15 PM 19.4 °F 7.2 °F -0.4 °F 42% 30.09 in 10.0 mi WNW 11.5 mph 26.5 mph N/A   Scattered Clouds
11:35 PM 19.4 °F 5.5 °F -0.4 °F 42% 30.10 in 10.0 mi WNW 15.0 mph 23.0 mph N/A   Scattered Clouds
11:55 PM 19.4 °F 7.9 °F -0.4 °F 42% 30.11 in 10.0 mi WNW 10.4 mph 26.5 mph N/A   Mostly Cloudy